This is the latest recevied weather packets stored in our database for station/object EA3AGY-13. If no packets are shown the sender has not sent any weather packets the latest 10 day(s).
| Time | Temp. | Humidity | Pressure | Rain* | Wind** | Luminosity | Snow |
|---|---|---|---|---|---|---|---|
| 1788310986 | 14.44° C | 49% | 1022.7 hPa | 0 mm | - | - | - |
| 1788310384 | 14.44° C | 50% | 1022.6 hPa | 0 mm | - | - | - |
| 1788309179 | 14.44° C | 48% | 1022.8 hPa | 0 mm | - | - | - |
| 1788307975 | 14.44° C | 47% | 1022.8 hPa | 0 mm | - | - | - |
| 1788305566 | 14.44° C | 45% | 1022.7 hPa | 0 mm | - | - | - |
| 1788303758 | 15° C | 43% | 1022.7 hPa | 0 mm | - | - | - |
| 1788303155 | 15.56° C | 42% | 1022.6 hPa | 0 mm | - | - | - |
| 1788301349 | 16.67° C | 44% | 1022.4 hPa | 0 mm | - | - | - |
| 1788300143 | 16.11° C | 44% | 1022.3 hPa | 0 mm | - | - | - |
| 1788299542 | 16.67° C | 44% | 1022.1 hPa | 0 mm | - | - | - |
| 1788298336 | 16.67° C | 45% | 1022 hPa | 0 mm | - | - | - |
| 1788297734 | 16.67° C | 45% | 1022.1 hPa | 0 mm | - | - | - |
| 1788297131 | 16.67° C | 44% | 1022 hPa | 0 mm | - | - | - |
| 1788296529 | 16.67° C | 44% | 1022.1 hPa | 0 mm | - | - | - |
| 1788295927 | 16.67° C | 44% | 1022 hPa | 0 mm | - | - | - |
| 1788295324 | 17.22° C | 45% | 1022.1 hPa | 0 mm | - | - | - |
| 1788294722 | 17.22° C | 44% | 1022.2 hPa | 0 mm | - | - | - |
| 1788294120 | 16.67° C | 44% | 1022.1 hPa | 0 mm | - | - | - |
| 1788292915 | 16.67° C | 42% | 1022 hPa | 0 mm | - | - | - |
| 1788292313 | 16.67° C | 42% | 1022 hPa | 0 mm | - | - | - |
| 1788290505 | 17.22° C | 47% | 1021.8 hPa | 0 mm | - | - | - |
| 1788288701 | 18.89° C | 39% | 1021.6 hPa | 0 mm | - | - | - |
| 1788288097 | 18.89° C | 38% | 1021.4 hPa | 0 mm | - | - | - |
| 1788287500 | 19.44° C | 37% | 1021.3 hPa | 0 mm | - | - | - |
| 1788285687 | 21.11° C | 34% | 1021.2 hPa | 0 mm | - | - | - |
* Rain since midnight (hover to see other rain measurements)
** Current wind speed in m/s (hover to see current wind gust speed)